Location: Belvedere Heights
(33.9836°N, 117.3109°W)
Time: 08:06:15
(UTC+00:00)

Nadezhda 3 Rocket - Pass Details

Date: 21 March 2023
Orbit: 956 x 999 km, 82.9° (Epoch: 01 June)

Event Time Altitude Azimuth Distance (km) Brightness Sun altitude
Rises 12:32:41 0° 354° (N) 3,679 7.1 -17.1°
Reaches altitude 10° 12:35:12 10° 356° (N) 2,734 6.4 -16.6°
Maximum altitude 12:41:29 83° 83° (E) 998 4.1 -15.3°
Drops below altitude 10° 12:47:48 10° 172° (S) 2,746 6.3 -14.0°
Sets 12:50:20 0° 173° (S) 3,696 7.0 -13.5°
